Weather History for OTBD - December, 2013

Change the Weather History Date:

Saturday, December 14, 2013

  Actual Average Record
Temperature  
Mean Temperature 76 °F -  
Max Temperature 83 °F 73 °F - ()
Min Temperature 69 °F 57 °F - ()
Cooling Degree Days 11    
Growing Degree Days 26 (Base 50)    
Moisture  
Dew Point 65 °F    
Average Humidity 68    
Maximum Humidity 88    
Minimum Humidity 42    
Precipitation  
Precipitation 0.00 in 0.02 in - ()
Sea Level Pressure  
Sea Level Pressure 30.03 in    
Wind  
Wind Speed 5 mph ()    
Max Wind Speed 12 mph    
Max Gust Speed -    
Visibility 7.1 miles    
Events      
T = Trace of Precipitation, MM = Missing Value Source: Averaged Metar Reports

Daily Weather History Graph

Daily Weather History Graph

Search for Another Location

Airport or City:

Trip Planner

Search our weather history database for the weather conditions in past years. The results will help you decide how hot, cold, wet, or windy it might be!

Date:

Astronomy

Dec. 14, 2013 Rise Set
Actual Time 6:10 AM AST 4:45 PM AST
Civil Twilight 5:45 AM AST 5:10 PM AST
Nautical Twilight 5:17 AM AST 5:39 PM AST
Astronomical Twilight 4:49 AM AST 6:07 PM AST
Moon 2:41 PM AST (12/14) 3:21 AM AST (12/14)
Length of Visible Light 11h 25m
Length of Day
10h 34m
Waxing Gibbous, 92% of the Moon is Illuminated
Dec 14
Waxing Gibbous
Dec 17
Full
Dec 25
Last Quarter
Jan 1
New
Jan 8
First Quarter

Hourly Weather History & Observations

Time (AST) Temp. Heat Index Dew Point Humidity Pressure Visibility Wind Dir Wind Speed Gust Speed Precip Events Conditions
12:00 AM 73.4 °F - 66.2 °F 78% 30.01 in - ESE 11.5 mph - N/A   Clear
12:30 AM 73.4 °F - 66.2 °F 78% 30.01 in - Variable 2.3 mph - N/A   Clear
1:00 AM 73.4 °F - 66.2 °F 78% 30.01 in - ESE 4.6 mph - N/A   Clear
1:30 AM 73.4 °F - 68.0 °F 83% 30.01 in - Variable 2.3 mph - N/A   Clear
2:00 AM 73.4 °F - 68.0 °F 83% 30.01 in - SE 6.9 mph - N/A   Clear
2:30 AM 73.4 °F - 68.0 °F 83% 30.01 in - Variable 2.3 mph - N/A   Clear
3:00 AM 73 °F - 66 °F 72% 30.02 in 7 mi 2.3 mph - -  
3:00 AM 73.4 °F - 66.2 °F 78% 30.01 in - Variable 2.3 mph - N/A   Clear
3:30 AM 71.6 °F - 66.2 °F 83% 30.01 in - Calm Calm - N/A   Clear
4:00 AM 71.6 °F - 66.2 °F 83% 30.01 in - Calm Calm - N/A   Clear
4:30 AM 69.8 °F - 66.2 °F 88% 30.01 in - Calm Calm - N/A   Clear
5:00 AM 71.6 °F - 66.2 °F 83% 30.04 in - Calm Calm - N/A   Clear
5:30 AM 71.6 °F - 66.2 °F 83% 30.04 in - Calm Calm - N/A   Clear
6:00 AM 71 °F - 66 °F 80% 30.05 in 6 mi SE 5.8 mph - -  
6:00 AM 71.6 °F - 66.2 °F 83% 30.04 in - SE 5.8 mph - N/A   Clear
6:30 AM 69.8 °F - 66.2 °F 88% 30.06 in - SSE 2.3 mph - N/A   Clear
7:00 AM 71.6 °F - 66.2 °F 83% 30.06 in - Variable 1.2 mph - N/A   Clear
7:30 AM 73.4 °F - 68.0 °F 83% 30.06 in - Variable 2.3 mph - N/A   Clear
8:00 AM 73.4 °F - 68.0 °F 83% 30.09 in - Variable 2.3 mph - N/A   Clear
8:30 AM 77.0 °F - 68.0 °F 74% 30.09 in - SE 4.6 mph - N/A   Clear
9:00 AM 77 °F - 66 °F 61% 30.10 in 7 mi SSE 5.8 mph - -   Scattered Clouds
9:00 AM 77.0 °F - 66.2 °F 69% 30.09 in - SSE 5.8 mph - N/A   Clear
9:30 AM 78.8 °F - 64.4 °F 61% 30.09 in - SSE 8.1 mph - N/A   Clear
10:00 AM 80.6 °F 81.8 °F 62.6 °F 54% 30.09 in - SSE 8.1 mph - N/A   Clear
10:30 AM 80.6 °F 81.8 °F 62.6 °F 54% 30.06 in - SSE 6.9 mph - N/A   Clear
11:00 AM 80.6 °F 82.3 °F 64.4 °F 58% 30.06 in - SSE 8.1 mph - N/A   Clear
11:30 AM 82.4 °F 83.9 °F 64.4 °F 54% 30.04 in - SSE 5.8 mph - N/A   Clear
12:00 PM 82 °F - 65 °F 48% 30.03 in 9 mi SE 6.9 mph - -  
12:00 PM 82.4 °F 84.6 °F 66.2 °F 58% 30.01 in - SE 6.9 mph - N/A   Clear
12:30 PM 82.4 °F 84.6 °F 66.2 °F 58% 30.01 in - SE 9.2 mph - N/A   Clear
1:00 PM 82.4 °F 83.9 °F 64.4 °F 54% 30.01 in - ESE 9.2 mph - N/A   Clear
1:30 PM 82.4 °F 83.9 °F 64.4 °F 54% 29.98 in - ESE 10.4 mph - N/A   Clear
2:00 PM 82.4 °F 83.4 °F 62.6 °F 51% 29.98 in - SE 10.4 mph - N/A   Clear
2:30 PM 82.4 °F 83.4 °F 62.6 °F 51% 29.98 in - SE 9.2 mph - N/A   Clear
3:00 PM 82 °F - 62 °F 42% 29.99 in 10 mi SE 8.1 mph - -  
3:00 PM 82.4 °F 83.4 °F 62.6 °F 51% 29.98 in - SE 8.1 mph - N/A   Clear
4:00 PM 80.6 °F 81.8 °F 62.6 °F 54% 29.98 in - SE 8.1 mph - N/A   Clear
4:30 PM 78.8 °F - 62.6 °F 57% 29.98 in - ESE 4.6 mph - N/A   Clear
5:00 PM 78.8 °F - 64.4 °F 61% 30.01 in - ESE 3.5 mph - N/A   Clear
6:00 PM 78 °F - 62 °F 48% 30.03 in 9 mi South 3.5 mph - -  
6:00 PM 77.0 °F - 62.6 °F 61% 30.01 in - South 3.5 mph - N/A   Clear
6:30 PM 77.0 °F - 62.6 °F 61% 30.04 in - Variable 2.3 mph - N/A   Clear
7:00 PM 77.0 °F - 60.8 °F 57% 30.04 in - Variable 2.3 mph - N/A   Clear
8:00 PM 75.2 °F - 62.6 °F 65% 30.04 in - Calm Calm - N/A   Clear
9:00 PM 75 °F - 61 °F 52% 30.06 in 9 mi West 3.5 mph - -  
9:00 PM 75.2 °F - 60.8 °F 61% 30.04 in - West 3.5 mph - N/A   Clear
9:30 PM 75.2 °F - 62.6 °F 65% 30.04 in - NNW 11.5 mph - N/A   Clear
10:00 PM 73.4 °F - 62.6 °F 69% 30.06 in - NW 10.4 mph - N/A   Clear
10:30 PM 71.6 °F - 64.4 °F 78% 30.06 in 5.6 mi NNW 10.4 mph - N/A   Unknown
11:00 PM 71.6 °F - 66.2 °F 83% 30.04 in 4.3 mi NW 11.5 mph - N/A   Partly Cloudy
11:30 PM 71.6 °F - 66.2 °F 83% 30.04 in 3.7 mi NW 11.5 mph - N/A   Mostly Cloudy